| time (UTC) | temp C | wind direction | speed KPH | gust KPH | rain 1hr cm | rain 24hr cm | rain mn cm | humidity % | barometer mb |
| 20260902204655 | 24 | 353 | 4.8 | 8.0 | 0.00 | 0.00 | 0.00 | 36 | 1028.4 |
| 20260902204149 | 23 | 222 | 0.0 | 1.6 | 0.00 | 0.00 | 0.00 | 37 | 1028.5 |
| 20260902203645 | 23 | 99 | 4.8 | 8.0 | 0.00 | 0.00 | 0.00 | 38 | 1028.5 |
| 20260902203140 | 23 | 123 | 1.6 | 3.2 | 0.00 | 0.00 | 0.00 | 38 | 1028.6 |
| 20260902202635 | 23 | 133 | 1.6 | 3.2 | 0.00 | 0.00 | 0.00 | 37 | 1028.9 |
| 20260902202132 | 23 | 4 | 4.8 | 8.0 | 0.00 | 0.00 | 0.00 | 37 | 1028.3 |
| 20260902201627 | 23 | 69 | 4.8 | 8.0 | 0.00 | 0.00 | 0.00 | 37 | 1028.5 |
| 20260902201127 | 23 | 205 | 0.0 | 1.6 | 0.00 | 0.00 | 0.00 | 37 | 1028.9 |
| 20260902200622 | 23 | 38 | 6.4 | 9.7 | 0.00 | 0.00 | 0.00 | 38 | 1028.8 |
| 20260902200118 | 23 | 51 | 6.4 | 11.3 | 0.00 | 0.00 | 0.00 | 37 | 1028.4 |
| 20260902195614 | 23 | 61 | 6.4 | 9.7 | 0.00 | 0.00 | 0.00 | 37 | 1028.6 |
| 20260902195113 | 22 | 61 | 6.4 | 9.7 | 0.00 | 0.00 | 0.00 | 38 | 1028.9 |
| 20260902194612 | 23 | 35 | 12.9 | 16.1 | 0.00 | 0.00 | 0.00 | 37 | 1028.8 |
| 20260902194107 | 23 | 221 | 3.2 | 3.2 | 0.00 | 0.00 | 0.00 | 37 | 1028.9 |
| 20260902193603 | 23 | 83 | 4.8 | 8.0 | 0.00 | 0.00 | 0.00 | 37 | 1028.9 |
| 20260902193103 | 22 | 95 | 3.2 | 4.8 | 0.00 | 0.00 | 0.00 | 40 | 1029.0 |
| 20260902192601 | 22 | 181 | 3.2 | 4.8 | 0.00 | 0.00 | 0.00 | 41 | 1029.1 |
| 20260902192100 | 22 | 223 | 4.8 | 9.7 | 0.00 | 0.00 | 0.00 | 39 | 1028.9 |
| 20260902191555 | 22 | 139 | 8.0 | 8.0 | 0.00 | 0.00 | 0.00 | 38 | 1029.1 |
| 20260902191050 | 22 | 227 | 4.8 | 4.8 | 0.00 | 0.00 | 0.00 | 38 | 1029.5 |
| 20260902190545 | 23 | 189 | 1.6 | 3.2 | 0.00 | 0.00 | 0.00 | 37 | 1029.3 |
| 20260902190041 | 22 | 252 | 4.8 | 8.0 | 0.00 | 0.00 | 0.00 | 37 | 1029.3 |
| 20260902185537 | 22 | 336 | 3.2 | 3.2 | 0.00 | 0.00 | 0.00 | 36 | 1029.5 |
| 20260902185032 | 23 | 230 | 6.4 | 8.0 | 0.00 | 0.00 | 0.00 | 35 | 1029.5 |
| 20260902184527 | 23 | 229 | 4.8 | 8.0 | 0.00 | 0.00 | 0.00 | 37 | 1029.4 |
| 20260902184022 | 23 | 215 | 1.6 | 1.6 | 0.00 | 0.00 | 0.00 | 34 | 1029.5 |
| 20260902183519 | 23 | 188 | 4.8 | 4.8 | 0.00 | 0.00 | 0.00 | 34 | 1029.5 |
| 20260902183015 | 24 | 133 | 1.6 | 3.2 | 0.00 | 0.00 | 0.00 | 34 | 1029.7 |
| 20260902182511 | 24 | 134 | 4.8 | 4.8 | 0.00 | 0.00 | 0.00 | 35 | 1029.7 |
| 20260902182006 | 24 | 127 | 3.2 | 8.0 | 0.00 | 0.00 | 0.00 | 35 | 1029.9 |
| 20260902181502 | 23 | 40 | 3.2 | 8.0 | 0.00 | 0.00 | 0.00 | 35 | 1029.8 |
| 20260902180956 | 23 | 72 | 4.8 | 8.0 | 0.00 | 0.00 | 0.00 | 35 | 1029.9 |
| 20260902180457 | 23 | 177 | 1.6 | 1.6 | 0.00 | 0.00 | 0.00 | 35 | 1030.0 |
| 20260902175952 | 23 | 170 | 4.8 | 4.8 | 0.00 | 0.00 | 0.00 | 33 | 1030.5 |
| 20260902175447 | 24 | 39 | 4.8 | 4.8 | 0.00 | 0.00 | 0.00 | 34 | 1030.3 |
| 20260902174943 | 24 | 209 | 0.0 | 1.6 | 0.00 | 0.00 | 0.00 | 35 | 1030.2 |
| 20260902174439 | 23 | 235 | 1.6 | 1.6 | 0.00 | 0.00 | 0.00 | 35 | 1030.3 |
| 20260902173935 | 23 | 154 | 4.8 | 8.0 | 0.00 | 0.00 | 0.00 | 35 | 1030.7 |
| 20260902173434 | 23 | 354 | 4.8 | 4.8 | 0.00 | 0.00 | 0.00 | 35 | 1030.4 |
| 20260902172929 | 23 | 334 | 4.8 | 8.0 | 0.00 | 0.00 | 0.00 | 35 | 1030.2 |
| 20260902172428 | 23 | 142 | 3.2 | 3.2 | 0.00 | 0.00 | 0.00 | 35 | 1030.4 |
| 20260902171924 | 22 | 199 | 1.6 | 3.2 | 0.00 | 0.00 | 0.00 | 37 | 1030.4 |
| 20260902171419 | 23 | 291 | 4.8 | 8.0 | 0.00 | 0.00 | 0.00 | 37 | 1030.5 |
| 20260902170915 | 22 | 14 | 6.4 | 8.0 | 0.00 | 0.00 | 0.00 | 37 | 1030.8 |
| 20260902170410 | 22 | 43 | 1.6 | 3.2 | 0.00 | 0.00 | 0.00 | 38 | 1030.4 |
| 20260902165906 | 22 | 302 | 6.4 | 8.0 | 0.00 | 0.00 | 0.00 | 38 | 1030.5 |
| 20260902165405 | 22 | 93 | 4.8 | 4.8 | 0.00 | 0.00 | 0.00 | 38 | 1030.8 |
| 20260902164900 | 21 | 128 | 0.0 | 1.6 | 0.00 | 0.00 | 0.00 | 39 | 1030.4 |
| 20260902164355 | 22 | 216 | 8.0 | 11.3 | 0.00 | 0.00 | 0.00 | 39 | 1030.7 |
| 20260902163854 | 22 | 102 | 6.4 | 8.0 | 0.00 | 0.00 | 0.00 | 38 | 1030.7 |
| 20260902163349 | 21 | 153 | 3.2 | 3.2 | 0.00 | 0.00 | 0.00 | 39 | 1030.7 |
| 20260902162847 | 21 | 356 | 14.5 | 20.9 | 0.00 | 0.00 | 0.00 | 39 | 1030.4 |
| 20260902162342 | 21 | 125 | 4.8 | 9.7 | 0.00 | 0.00 | 0.00 | 40 | 1030.7 |
| 20260902161837 | 21 | 74 | 8.0 | 11.3 | 0.00 | 0.00 | 0.00 | 38 | 1030.7 |
| 20260902161332 | 21 | 201 | 1.6 | 3.2 | 0.00 | 0.00 | 0.00 | 39 | 1030.7 |
| 20260902160828 | 22 | 16 | 11.3 | 14.5 | 0.00 | 0.00 | 0.00 | 38 | 1030.8 |
| 20260902160323 | 21 | 261 | 1.6 | 3.2 | 0.00 | 0.00 | 0.00 | 38 | 1030.7 |
| 20260902155821 | 21 | 319 | 3.2 | 3.2 | 0.00 | 0.00 | 0.00 | 39 | 1030.5 |
| 20260902155320 | 21 | 199 | 1.6 | 1.6 | 0.00 | 0.00 | 0.00 | 40 | 1030.8 |
| 20260902154816 | 21 | 48 | 4.8 | 4.8 | 0.00 | 0.00 | 0.00 | 38 | 1030.8 |
| 20260902154311 | 21 | 350 | 1.6 | 3.2 | 0.00 | 0.00 | 0.00 | 40 | 1030.9 |
| 20260902153810 | 21 | 194 | 0.0 | 0.0 | 0.00 | 0.00 | 0.00 | 39 | 1030.9 |
| 20260902153304 | 21 | 44 | 1.6 | 1.6 | 0.00 | 0.00 | 0.00 | 39 | 1030.8 |
| 20260902152800 | 20 | 23 | 3.2 | 3.2 | 0.00 | 0.00 | 0.00 | 39 | 1030.5 |
| 20260902152256 | 20 | 193 | 1.6 | 1.6 | 0.00 | 0.00 | 0.00 | 40 | 1030.7 |
| 20260902151756 | 20 | 170 | 1.6 | 1.6 | 0.00 | 0.00 | 0.00 | 41 | 1031.0 |
| 20260902151251 | 20 | 148 | 6.4 | 11.3 | 0.00 | 0.00 | 0.00 | 41 | 1030.7 |
| 20260902150746 | 20 | 170 | 0.0 | 1.6 | 0.00 | 0.00 | 0.00 | 45 | 1030.8 |
| 20260902150243 | 20 | 195 | 0.0 | 0.0 | 0.00 | 0.00 | 0.00 | 43 | 1030.5 |
| 20260902145741 | 19 | 201 | 0.0 | 1.6 | 0.00 | 0.00 | 0.00 | 43 | 1030.5 |
| 20260902145237 | 17 | 191 | 1.6 | 1.6 | 0.00 | 0.00 | 0.00 | 47 | 1030.7 |
| 20260902144732 | 17 | 226 | 1.6 | 1.6 | 0.00 | 0.00 | 0.00 | 52 | 1030.3 |
| 20260902144228 | 16 | 214 | 0.0 | 0.0 | 0.00 | 0.00 | 0.00 | 57 | 1030.7 |
| 20260902143723 | 16 | 201 | 0.0 | 0.0 | 0.00 | 0.00 | 0.00 | 55 | 1030.7 |
| 20260902143218 | 15 | 162 | 0.0 | 1.6 | 0.00 | 0.00 | 0.00 | 58 | 1030.7 |
| 20260902142714 | 14 | 187 | 0.0 | 1.6 | 0.00 | 0.00 | 0.00 | 58 | 1030.8 |
| 20260902142210 | 13 | 209 | 0.0 | 0.0 | 0.00 | 0.00 | 0.00 | 60 | 1030.8 |
| 20260902141709 | 13 | 220 | 0.0 | 0.0 | 0.00 | 0.00 | 0.00 | 60 | 1030.5 |
| 20260902141205 | 13 | 208 | 0.0 | 0.0 | 0.00 | 0.00 | 0.00 | 59 | 1030.4 |
| 20260902140701 | 12 | 144 | 3.2 | 3.2 | 0.00 | 0.00 | 0.00 | 57 | 1030.5 |
| 20260902140201 | 12 | 195 | 1.6 | 1.6 | 0.00 | 0.00 | 0.00 | 60 | 1030.5 |
| 20260902135700 | 11 | 194 | 1.6 | 1.6 | 0.00 | 0.00 | 0.00 | 62 | 1030.5 |
| 20260902135155 | 11 | 215 | 0.0 | 0.0 | 0.00 | 0.00 | 0.00 | 62 | 1030.4 |
| 20260902134650 | 11 | 168 | 3.2 | 3.2 | 0.00 | 0.00 | 0.00 | 63 | 1030.9 |
| 20260902134150 | 10 | 190 | 1.6 | 1.6 | 0.00 | 0.00 | 0.00 | 65 | 1030.7 |
| 20260902133646 | 10 | 177 | 1.6 | 1.6 | 0.00 | 0.00 | 0.00 | 67 | 1030.9 |
| 20260902133145 | 8 | 218 | 0.0 | 0.0 | 0.00 | 0.00 | 0.00 | 70 | 1030.4 |
| 20260902132641 | 8 | 203 | 0.0 | 1.6 | 0.00 | 0.00 | 0.00 | 71 | 1030.4 |
| 20260902132136 | 7 | 208 | 0.0 | 0.0 | 0.00 | 0.00 | 0.00 | 75 | 1030.4 |
| 20260902131632 | 8 | 208 | 1.6 | 1.6 | 0.00 | 0.00 | 0.00 | 73 | 1030.3 |
| 20260902131127 | 8 | 158 | 1.6 | 1.6 | 0.00 | 0.00 | 0.00 | 74 | 1030.7 |
| 20260902130623 | 7 | 189 | 1.6 | 1.6 | 0.00 | 0.00 | 0.00 | 76 | 1030.4 |
| 20260902130118 | 8 | 249 | 0.0 | 1.6 | 0.00 | 0.00 | 0.00 | 77 | 1030.8 |
| 20260902125614 | 8 | 217 | 0.0 | 0.0 | 0.00 | 0.00 | 0.00 | 75 | 1030.5 |
| 20260902125109 | 8 | 201 | 0.0 | 1.6 | 0.00 | 0.00 | 0.00 | 76 | 1030.5 |
| 20260902124605 | 7 | 170 | 3.2 | 3.2 | 0.00 | 0.00 | 0.00 | 79 | 1030.4 |
| 20260902124105 | 7 | 219 | 0.0 | 0.0 | 0.00 | 0.00 | 0.00 | 81 | 1030.2 |
| 20260902123601 | 7 | 216 | 0.0 | 0.0 | 0.00 | 0.00 | 0.00 | 80 | 1030.2 |
| 20260902123055 | 8 | 218 | 0.0 | 0.0 | 0.00 | 0.00 | 0.00 | 80 | 1030.2 |
| 20260902122550 | 8 | 223 | 0.0 | 0.0 | 0.00 | 0.00 | 0.00 | 77 | 1029.9 |
| 20260902122046 | 8 | 217 | 0.0 | 0.0 | 0.00 | 0.00 | 0.00 | 79 | 1030.2 |
| 20260902121545 | 8 | 181 | 1.6 | 1.6 | 0.00 | 0.00 | 0.00 | 81 | 1030.0 |
| 20260902121040 | 8 | 207 | 0.0 | 1.6 | 0.00 | 0.00 | 0.00 | 80 | 1030.0 |
| 20260902120536 | 8 | 249 | 0.0 | 0.0 | 0.00 | 0.00 | 0.00 | 78 | 1030.2 |
| 20260902120032 | 10 | 192 | 1.6 | 1.6 | 0.00 | 0.00 | 0.00 | 75 | 1029.8 |
| 20260902115527 | 9 | 193 | 1.6 | 1.6 | 0.00 | 0.00 | 0.00 | 76 | 1030.0 |
| 20260902115024 | 10 | 209 | 0.0 | 1.6 | 0.00 | 0.00 | 0.00 | 77 | 1030.0 |
| 20260902114519 | 10 | 197 | 0.0 | 1.6 | 0.00 | 0.00 | 0.00 | 76 | 1030.3 |
| 20260902114019 | 9 | 238 | 0.0 | 0.0 | 0.00 | 0.00 | 0.00 | 78 | 1030.2 |
| 20260902113515 | 8 | 195 | 1.6 | 1.6 | 0.00 | 0.00 | 0.00 | 81 | 1030.2 |
| 20260902113010 | 8 | 210 | 0.0 | 0.0 | 0.00 | 0.00 | 0.00 | 81 | 1029.9 |
| 20260902112505 | 9 | 224 | 0.0 | 0.0 | 0.00 | 0.00 | 0.00 | 79 | 1029.8 |
| 20260902112001 | 8 | 176 | 3.2 | 3.2 | 0.00 | 0.00 | 0.00 | 80 | 1029.9 |
| 20260902111457 | 8 | 178 | 1.6 | 1.6 | 0.00 | 0.00 | 0.00 | 83 | 1030.0 |
| 20260902110952 | 7 | 206 | 0.0 | 0.0 | 0.00 | 0.00 | 0.00 | 85 | 1030.2 |
| 20260902110448 | 8 | 192 | 0.0 | 0.0 | 0.00 | 0.00 | 0.00 | 85 | 1029.9 |
| 20260902105943 | 8 | 224 | 0.0 | 0.0 | 0.00 | 0.00 | 0.00 | 83 | 1030.2 |
| 20260902105439 | 8 | 163 | 4.8 | 4.8 | 0.00 | 0.00 | 0.00 | 85 | 1029.9 |
| 20260902104933 | 8 | 226 | 0.0 | 0.0 | 0.00 | 0.00 | 0.00 | 85 | 1030.3 |
| 20260902104429 | 8 | 166 | 3.2 | 3.2 | 0.00 | 0.00 | 0.00 | 86 | 1030.0 |
| 20260902103929 | 8 | 211 | 0.0 | 0.0 | 0.00 | 0.00 | 0.00 | 84 | 1030.2 |
| 20260902103424 | 9 | 232 | 0.0 | 0.0 | 0.00 | 0.00 | 0.00 | 81 | 1030.0 |
| 20260902102919 | 8 | 152 | 3.2 | 3.2 | 0.00 | 0.00 | 0.00 | 81 | 1030.0 |
| 20260902102416 | 9 | 211 | 0.0 | 0.0 | 0.00 | 0.00 | 0.00 | 81 | 1030.0 |
| 20260902101912 | 9 | 206 | 0.0 | 0.0 | 0.00 | 0.00 | 0.00 | 81 | 1030.0 |
| 20260902101406 | 9 | 198 | 0.0 | 1.6 | 0.00 | 0.00 | 0.00 | 81 | 1030.3 |
| 20260902100906 | 9 | 220 | 0.0 | 0.0 | 0.00 | 0.00 | 0.00 | 80 | 1030.0 |
| 20260902100406 | 9 | 207 | 0.0 | 0.0 | 0.00 | 0.00 | 0.00 | 80 | 1029.8 |
| 20260902095900 | 8 | 175 | 1.6 | 3.2 | 0.00 | 0.00 | 0.00 | 82 | 1029.9 |
| 20260902095355 | 9 | 222 | 0.0 | 0.0 | 0.00 | 0.00 | 0.00 | 81 | 1030.0 |
| 20260902094855 | 9 | 190 | 1.6 | 1.6 | 0.00 | 0.00 | 0.00 | 81 | 1030.0 |
| 20260902094351 | 10 | 181 | 3.2 | 3.2 | 0.00 | 0.00 | 0.00 | 79 | 1030.2 |
| 20260902093850 | 10 | 218 | 0.0 | 0.0 | 0.00 | 0.00 | 0.00 | 79 | 1030.3 |
| 20260902093346 | 10 | 209 | 0.0 | 0.0 | 0.00 | 0.00 | 0.00 | 78 | 1030.2 |
| 20260902092844 | 10 | 180 | 3.2 | 3.2 | 0.00 | 0.00 | 0.00 | 79 | 1030.2 |
| 20260902092340 | 10 | 207 | 0.0 | 0.0 | 0.00 | 0.00 | 0.00 | 79 | 1030.3 |
| 20260902091834 | 10 | 187 | 1.6 | 1.6 | 0.00 | 0.00 | 0.00 | 79 | 1030.0 |
| 20260902091330 | 10 | 196 | 0.0 | 1.6 | 0.00 | 0.00 | 0.00 | 79 | 1030.2 |
| 20260902090827 | 10 | 221 | 0.0 | 0.0 | 0.00 | 0.00 | 0.00 | 78 | 1030.2 |
| 20260902090326 | 10 | 211 | 0.0 | 0.0 | 0.00 | 0.00 | 0.00 | 78 | 1030.3 |
| 20260902085825 | 10 | 193 | 0.0 | 0.0 | 0.00 | 0.00 | 0.00 | 78 | 1030.2 |
| 20260902085321 | 10 | 203 | 0.0 | 1.6 | 0.00 | 0.00 | 0.00 | 78 | 1030.2 |
| 20260902084816 | 10 | 172 | 1.6 | 3.2 | 0.00 | 0.00 | 0.00 | 78 | 1030.3 |
| 20260902084313 | 10 | 214 | 0.0 | 0.0 | 0.00 | 0.00 | 0.00 | 78 | 1029.9 |
| 20260902083808 | 10 | 214 | 0.0 | 0.0 | 0.00 | 0.00 | 0.00 | 77 | 1030.3 |
| 20260902083307 | 10 | 213 | 0.0 | 0.0 | 0.00 | 0.00 | 0.00 | 77 | 1030.2 |
| 20260902082802 | 9 | 192 | 0.0 | 1.6 | 0.00 | 0.00 | 0.00 | 80 | 1030.2 |
| 20260902082259 | 10 | 218 | 0.0 | 0.0 | 0.00 | 0.00 | 0.00 | 79 | 1030.2 |
| 20260902081755 | 10 | 218 | 0.0 | 0.0 | 0.00 | 0.00 | 0.00 | 79 | 1030.2 |
| 20260902081250 | 10 | 212 | 0.0 | 0.0 | 0.00 | 0.00 | 0.00 | 78 | 1030.2 |
| 20260902080745 | 10 | 196 | 1.6 | 1.6 | 0.00 | 0.00 | 0.00 | 79 | 1030.3 |
| 20260902080243 | 10 | 201 | 0.0 | 1.6 | 0.00 | 0.00 | 0.00 | 80 | 1030.4 |
| 20260902075741 | 10 | 216 | 0.0 | 0.0 | 0.00 | 0.00 | 0.00 | 80 | 1030.7 |
| 20260902075237 | 10 | 194 | 0.0 | 0.0 | 0.00 | 0.00 | 0.00 | 80 | 1030.4 |
| 20260902074732 | 10 | 214 | 0.0 | 0.0 | 0.00 | 0.00 | 0.00 | 80 | 1030.4 |
| 20260902074228 | 10 | 166 | 3.2 | 3.2 | 0.00 | 0.00 | 0.00 | 80 | 1030.4 |
| 20260902073723 | 10 | 217 | 0.0 | 0.0 | 0.00 | 0.00 | 0.00 | 79 | 1030.4 |
| 20260902073219 | 10 | 204 | 0.0 | 0.0 | 0.00 | 0.00 | 0.00 | 79 | 1030.5 |
| 20260902072715 | 10 | 213 | 0.0 | 0.0 | 0.00 | 0.00 | 0.00 | 78 | 1030.3 |
| 20260902072211 | 10 | 214 | 0.0 | 0.0 | 0.00 | 0.00 | 0.00 | 78 | 1030.2 |
| 20260902071706 | 10 | 198 | 0.0 | 0.0 | 0.00 | 0.00 | 0.00 | 78 | 1030.4 |
| 20260902071201 | 10 | 202 | 0.0 | 1.6 | 0.00 | 0.00 | 0.00 | 79 | 1030.3 |
| 20260902070658 | 10 | 176 | 1.6 | 1.6 | 0.00 | 0.00 | 0.00 | 78 | 1030.2 |
| 20260902070157 | 10 | 193 | 0.0 | 1.6 | 0.00 | 0.00 | 0.00 | 78 | 1030.3 |
| 20260902065655 | 10 | 184 | 1.6 | 1.6 | 0.00 | 0.00 | 0.00 | 78 | 1030.2 |
| 20260902065152 | 10 | 179 | 1.6 | 1.6 | 0.00 | 0.00 | 0.00 | 78 | 1030.5 |
| 20260902064647 | 10 | 209 | 0.0 | 0.0 | 0.00 | 0.00 | 0.00 | 78 | 1030.5 |
| 20260902064142 | 10 | 196 | 0.0 | 0.0 | 0.00 | 0.00 | 0.00 | 78 | 1030.7 |
| 20260902063637 | 10 | 199 | 1.6 | 1.6 | 0.00 | 0.00 | 0.00 | 78 | 1030.4 |
| 20260902063132 | 10 | 190 | 0.0 | 0.0 | 0.00 | 0.00 | 0.00 | 78 | 1030.5 |
| 20260902062631 | 10 | 176 | 0.0 | 1.6 | 0.00 | 0.00 | 0.00 | 78 | 1030.5 |
| 20260902062127 | 10 | 218 | 0.0 | 0.0 | 0.00 | 0.00 | 0.00 | 77 | 1030.5 |
| 20260902061626 | 11 | 213 | 0.0 | 0.0 | 0.00 | 0.00 | 0.00 | 76 | 1030.5 |
| 20260902061122 | 10 | 167 | 3.2 | 3.2 | 0.00 | 0.00 | 0.00 | 76 | 1030.7 |
| 20260902060619 | 10 | 194 | 1.6 | 1.6 | 0.00 | 0.00 | 0.00 | 77 | 1030.3 |
| 20260902060115 | 10 | 218 | 0.0 | 0.0 | 0.00 | 0.00 | 0.00 | 76 | 1030.4 |
| 20260902055610 | 11 | 213 | 0.0 | 0.0 | 0.00 | 0.10 | 0.10 | 76 | 1030.3 |
| 20260902055105 | 11 | 203 | 0.0 | 0.0 | 0.00 | 0.10 | 0.10 | 75 | 1030.4 |
| 20260902054600 | 11 | 213 | 0.0 | 0.0 | 0.00 | 0.10 | 0.10 | 74 | 1030.4 |
| 20260902054056 | 11 | 195 | 0.0 | 0.0 | 0.00 | 0.10 | 0.10 | 74 | 1030.4 |
| 20260902053551 | 11 | 213 | 0.0 | 0.0 | 0.00 | 0.10 | 0.10 | 74 | 1030.5 |
| 20260902053050 | 11 | 153 | 1.6 | 1.6 | 0.00 | 0.10 | 0.10 | 75 | 1030.2 |
| 20260902052545 | 11 | 195 | 0.0 | 1.6 | 0.00 | 0.10 | 0.10 | 75 | 1030.4 |
| 20260902052041 | 11 | 201 | 0.0 | 1.6 | 0.00 | 0.10 | 0.10 | 77 | 1030.5 |
| 20260902051540 | 11 | 209 | 0.0 | 0.0 | 0.00 | 0.10 | 0.10 | 76 | 1030.4 |
| 20260902051039 | 11 | 217 | 0.0 | 0.0 | 0.00 | 0.10 | 0.10 | 76 | 1030.8 |
| 20260902050534 | 11 | 201 | 1.6 | 1.6 | 0.00 | 0.10 | 0.10 | 74 | 1030.8 |
| 20260902050030 | 11 | 206 | 0.0 | 0.0 | 0.00 | 0.10 | 0.10 | 74 | 1030.4 |
| 20260902045525 | 11 | 185 | 1.6 | 1.6 | 0.00 | 0.10 | 0.10 | 75 | 1030.7 |
| 20260902045021 | 11 | 206 | 0.0 | 0.0 | 0.00 | 0.10 | 0.10 | 75 | 1030.4 |
| 20260902044516 | 11 | 189 | 1.6 | 1.6 | 0.00 | 0.10 | 0.10 | 75 | 1030.5 |
| 20260902044012 | 11 | 201 | 1.6 | 1.6 | 0.00 | 0.10 | 0.10 | 75 | 1030.8 |
| 20260902043507 | 11 | 205 | 0.0 | 0.0 | 0.00 | 0.10 | 0.10 | 75 | 1030.5 |
| 20260902043006 | 11 | 201 | 0.0 | 0.0 | 0.00 | 0.10 | 0.10 | 75 | 1030.5 |
| 20260902042501 | 11 | 212 | 0.0 | 0.0 | 0.00 | 0.10 | 0.10 | 75 | 1030.8 |
| 20260902041956 | 11 | 184 | 1.6 | 1.6 | 0.00 | 0.10 | 0.10 | 74 | 1030.8 |
| 20260902041456 | 11 | 214 | 0.0 | 0.0 | 0.00 | 0.10 | 0.10 | 74 | 1030.8 |
| 20260902040951 | 12 | 195 | 1.6 | 1.6 | 0.00 | 0.10 | 0.10 | 73 | 1030.8 |
| 20260902040450 | 12 | 212 | 0.0 | 0.0 | 0.00 | 0.10 | 0.10 | 73 | 1030.5 |
| 20260902035944 | 12 | 204 | 1.6 | 1.6 | 0.00 | 0.10 | 0.10 | 73 | 1030.7 |
| 20260902035439 | 12 | 182 | 1.6 | 1.6 | 0.00 | 0.10 | 0.10 | 73 | 1030.5 |
| 20260902034939 | 12 | 187 | 1.6 | 1.6 | 0.00 | 0.10 | 0.10 | 74 | 1030.5 |
| 20260902034433 | 12 | 187 | 1.6 | 1.6 | 0.00 | 0.10 | 0.10 | 73 | 1030.4 |
| 20260902033933 | 12 | 197 | 1.6 | 1.6 | 0.00 | 0.10 | 0.10 | 72 | 1030.7 |
| 20260902033432 | 12 | 178 | 1.6 | 1.6 | 0.00 | 0.10 | 0.10 | 72 | 1030.7 |
| 20260902032931 | 12 | 204 | 0.0 | 1.6 | 0.00 | 0.10 | 0.10 | 72 | 1030.8 |
| 20260902032426 | 12 | 223 | 1.6 | 1.6 | 0.00 | 0.10 | 0.10 | 71 | 1030.7 |
| 20260902031921 | 12 | 214 | 0.0 | 0.0 | 0.00 | 0.10 | 0.10 | 71 | 1030.8 |
| 20260902031416 | 12 | 213 | 0.0 | 0.0 | 0.00 | 0.10 | 0.10 | 71 | 1030.7 |
| 20260902030912 | 13 | 219 | 0.0 | 0.0 | 0.00 | 0.10 | 0.10 | 71 | 1030.3 |
| 20260902030407 | 13 | 195 | 0.0 | 0.0 | 0.00 | 0.10 | 0.10 | 70 | 1030.3 |
| 20260902025905 | 13 | 192 | 0.0 | 1.6 | 0.00 | 0.10 | 0.10 | 70 | 1030.4 |
| 20260902025356 | 13 | 219 | 0.0 | 0.0 | 0.00 | 0.10 | 0.10 | 68 | 1030.4 |
| 20260902024856 | 13 | 203 | 0.0 | 0.0 | 0.00 | 0.10 | 0.10 | 68 | 1030.0 |
| 20260902024351 | 14 | 206 | 0.0 | 0.0 | 0.00 | 0.10 | 0.10 | 67 | 1030.3 |
| 20260902023846 | 14 | 198 | 1.6 | 1.6 | 0.00 | 0.10 | 0.10 | 67 | 1030.4 |
| 20260902023336 | 14 | 219 | 0.0 | 0.0 | 0.00 | 0.10 | 0.10 | 66 | 1029.9 |
| 20260902022835 | 15 | 198 | 0.0 | 0.0 | 0.00 | 0.10 | 0.10 | 65 | 1029.9 |
| 20260902022331 | 15 | 214 | 0.0 | 0.0 | 0.00 | 0.10 | 0.10 | 64 | 1030.0 |
| 20260902021827 | 15 | 194 | 1.6 | 1.6 | 0.00 | 0.10 | 0.10 | 65 | 1029.8 |
| 20260902021327 | 16 | 222 | 0.0 | 0.0 | 0.00 | 0.10 | 0.10 | 63 | 1029.8 |
| 20260902020823 | 16 | 222 | 0.0 | 1.6 | 0.00 | 0.10 | 0.10 | 61 | 1029.5 |
| 20260902020319 | 16 | 220 | 0.0 | 0.0 | 0.00 | 0.10 | 0.10 | 61 | 1029.8 |
| 20260902015814 | 16 | 212 | 0.0 | 1.6 | 0.00 | 0.10 | 0.10 | 62 | 1029.7 |
| 20260902015310 | 16 | 219 | 0.0 | 0.0 | 0.00 | 0.10 | 0.10 | 62 | 1029.8 |
| 20260902014805 | 16 | 206 | 0.0 | 0.0 | 0.00 | 0.10 | 0.10 | 61 | 1029.7 |
| 20260902014302 | 16 | 195 | 1.6 | 1.6 | 0.00 | 0.10 | 0.10 | 61 | 1029.7 |
| 20260902013800 | 16 | 193 | 1.6 | 1.6 | 0.00 | 0.10 | 0.10 | 62 | 1029.5 |
| 20260902013256 | 16 | 212 | 0.0 | 0.0 | 0.00 | 0.10 | 0.10 | 62 | 1029.7 |
| 20260902012751 | 16 | 219 | 0.0 | 0.0 | 0.00 | 0.10 | 0.10 | 62 | 1029.4 |
| 20260902012247 | 16 | 212 | 0.0 | 0.0 | 0.00 | 0.10 | 0.10 | 62 | 1029.5 |
| 20260902011743 | 17 | 214 | 0.0 | 0.0 | 0.00 | 0.10 | 0.10 | 60 | 1029.7 |
| 20260902011242 | 17 | 224 | 0.0 | 0.0 | 0.00 | 0.10 | 0.10 | 60 | 1029.8 |
| 20260902010741 | 18 | 222 | 0.0 | 0.0 | 0.00 | 0.10 | 0.10 | 59 | 1029.5 |
| 20260902010237 | 18 | 217 | 0.0 | 0.0 | 0.00 | 0.10 | 0.10 | 57 | 1029.5 |
| 20260902005736 | 19 | 219 | 0.0 | 0.0 | 0.00 | 0.10 | 0.10 | 56 | 1029.4 |
| 20260902005232 | 20 | 219 | 0.0 | 0.0 | 0.00 | 0.10 | 0.10 | 55 | 1029.5 |
| 20260902004731 | 20 | 221 | 0.0 | 0.0 | 0.00 | 0.10 | 0.10 | 51 | 1029.7 |
| 20260902004226 | 21 | 220 | 0.0 | 0.0 | 0.00 | 0.10 | 0.10 | 47 | 1029.3 |
| 20260902003721 | 20 | 207 | 0.0 | 1.6 | 0.00 | 0.10 | 0.10 | 48 | 1029.3 |
| 20260902003217 | 20 | 203 | 0.0 | 0.0 | 0.00 | 0.10 | 0.10 | 49 | 1029.3 |
| 20260902002713 | 20 | 214 | 0.0 | 0.0 | 0.00 | 0.10 | 0.10 | 48 | 1029.4 |
| 20260902002212 | 20 | 214 | 0.0 | 0.0 | 0.00 | 0.10 | 0.10 | 47 | 1029.3 |
| 20260902001708 | 21 | 209 | 0.0 | 1.6 | 0.00 | 0.10 | 0.10 | 47 | 1029.3 |
| 20260902001207 | 21 | 222 | 0.0 | 0.0 | 0.00 | 0.10 | 0.10 | 45 | 1029.4 |
| 20260902000703 | 21 | 6 | 3.2 | 3.2 | 0.00 | 0.10 | 0.10 | 45 | 1029.3 |
| 20260902000158 | 22 | 226 | 3.2 | 3.2 | 0.00 | 0.10 | 0.10 | 46 | 1029.4 |
| 20260901235657 | 22 | 291 | 3.2 | 3.2 | 0.00 | 0.10 | 0.10 | 44 | 1029.3 |
| 20260901235152 | 22 | 214 | 0.0 | 0.0 | 0.00 | 0.10 | 0.10 | 46 | 1029.3 |
| 20260901234651 | 22 | 216 | 0.0 | 0.0 | 0.00 | 0.10 | 0.10 | 45 | 1029.1 |
| 20260901234147 | 22 | 145 | 4.8 | 4.8 | 0.00 | 0.10 | 0.10 | 45 | 1029.5 |
| 20260901233641 | 22 | 305 | 1.6 | 3.2 | 0.00 | 0.10 | 0.10 | 44 | 1029.0 |
| 20260901233137 | 22 | 233 | 3.2 | 4.8 | 0.00 | 0.10 | 0.10 | 43 | 1029.3 |
| 20260901232632 | 23 | 240 | 4.8 | 4.8 | 0.00 | 0.10 | 0.10 | 44 | 1029.1 |
| 20260901232127 | 23 | 257 | 6.4 | 8.0 | 0.00 | 0.10 | 0.10 | 42 | 1029.1 |
| 20260901231624 | 23 | 249 | 3.2 | 3.2 | 0.00 | 0.10 | 0.10 | 43 | 1029.3 |
| 20260901231120 | 22 | 238 | 0.0 | 0.0 | 0.00 | 0.10 | 0.10 | 43 | 1029.3 |
| 20260901230616 | 22 | 183 | 0.0 | 0.0 | 0.00 | 0.10 | 0.10 | 43 | 1029.4 |
| 20260901230115 | 22 | 229 | 3.2 | 3.2 | 0.00 | 0.10 | 0.10 | 43 | 1029.3 |
| 20260901225610 | 22 | 225 | 3.2 | 3.2 | 0.00 | 0.10 | 0.10 | 43 | 1029.3 |
| 20260901225110 | 22 | 221 | 1.6 | 1.6 | 0.00 | 0.10 | 0.10 | 43 | 1029.3 |
| 20260901224607 | 22 | 172 | 3.2 | 3.2 | 0.00 | 0.10 | 0.10 | 40 | 1029.0 |
| 20260901224103 | 22 | 347 | 0.0 | 0.0 | 0.00 | 0.10 | 0.10 | 42 | 1029.1 |
| 20260901223557 | 23 | 223 | 1.6 | 3.2 | 0.00 | 0.10 | 0.10 | 43 | 1029.3 |
| 20260901223053 | 25 | 136 | 3.2 | 4.8 | 0.00 | 0.10 | 0.10 | 40 | 1029.3 |
| 20260901222549 | 23 | 212 | 1.6 | 1.6 | 0.00 | 0.10 | 0.10 | 42 | 1029.4 |
| 20260901222045 | 24 | 45 | 4.8 | 4.8 | 0.00 | 0.10 | 0.10 | 41 | 1029.3 |
| 20260901221541 | 23 | 28 | 1.6 | 3.2 | 0.00 | 0.10 | 0.10 | 41 | 1029.5 |
| 20260901221036 | 22 | 250 | 3.2 | 3.2 | 0.00 | 0.10 | 0.10 | 42 | 1029.5 |
| 20260901220535 | 21 | 223 | 1.6 | 1.6 | 0.00 | 0.10 | 0.10 | 44 | 1029.7 |
| 20260901220034 | 21 | 18 | 3.2 | 4.8 | 0.00 | 0.10 | 0.10 | 44 | 1029.5 |
| 20260901215533 | 22 | 347 | 8.0 | 9.7 | 0.00 | 0.10 | 0.10 | 43 | 1029.8 |
| 20260901215032 | 22 | 157 | 1.6 | 3.2 | 0.00 | 0.10 | 0.10 | 44 | 1029.5 |
| 20260901214531 | 21 | 2 | 4.8 | 4.8 | 0.00 | 0.10 | 0.10 | 44 | 1029.8 |
| 20260901214026 | 22 | 240 | 1.6 | 1.6 | 0.00 | 0.10 | 0.10 | 43 | 1029.5 |
| 20260901213520 | 22 | 23 | 11.3 | 12.9 | 0.00 | 0.10 | 0.10 | 43 | 1029.7 |
| 20260901213020 | 22 | 28 | 8.0 | 9.7 | 0.00 | 0.10 | 0.10 | 44 | 1029.8 |
| 20260901212514 | 22 | 29 | 4.8 | 4.8 | 0.00 | 0.10 | 0.10 | 44 | 1029.8 |
| 20260901212011 | 22 | 359 | 4.8 | 4.8 | 0.00 | 0.10 | 0.10 | 43 | 1029.8 |
| 20260901211506 | 22 | 48 | 4.8 | 8.0 | 0.00 | 0.10 | 0.10 | 43 | 1029.4 |
| 20260901211002 | 23 | 214 | 1.6 | 3.2 | 0.00 | 0.10 | 0.10 | 43 | 1029.7 |
| 20260901210457 | 22 | 192 | 4.8 | 8.0 | 0.00 | 0.10 | 0.10 | 45 | 1029.8 |
| 20260901205953 | 22 | 339 | 8.0 | 9.7 | 0.00 | 0.10 | 0.10 | 44 | 1029.5 |
| 20260901205449 | 22 | 320 | 4.8 | 4.8 | 0.00 | 0.10 | 0.10 | 44 | 1029.7 |
| 20260901204943 | 22 | 247 | 4.8 | 4.8 | 0.00 | 0.10 | 0.10 | 44 | 1029.7 |